O/OREOS (USA 219)

Last updated on Wed Sep 17 2025 00:03:09 GMT+0000 (Coordinated Universal Time)

1 37224U 10062C 25259.54924258 .00002516 00000+0 25394-3 0 9998 2 37224 71.9734 339.4169 0016383 233.5669 126.3991 14.91938634 75800
UTC large
Height (km)
Speed (km/s)
/
Latitude / Longitude
Inclination (degrees)
Orbital Period (minutes)
Azimuth
Elevation
Range (km)
Doppler Factor

Next 0 passes for location: London (51.5072 / 0.1276)

Sorry there are no passes over London.